Stations météo

réclame
Mon MeteoGroup
Arkona, Allemagne (10091): Température de l'air & dewpoint: 03.07.2020 07:00:00 - 09.07.2020 07:00:00 (CEST)Arkona, Allemagne (10091): Température de l'air 5cm & Température de l'air -5cm: 03.07.2020 07:00:00 - 09.07.2020 07:00:00 (CEST)Arkona, Allemagne (10091): Température de l'air -20cm & Température de l'air -100cm: 03.07.2020 07:00:00 - 09.07.2020 07:00:00 (CEST)Arkona, Allemagne (10091): water temperature: 03.07.2020 07:00:00 - 09.07.2020 07:00:00 (CEST)Arkona, Allemagne (10091): Vitesse du vent & gusts: 03.07.2020 07:00:00 - 09.07.2020 07:00:00 (CEST)Arkona, Allemagne (10091): Direction du vent: 03.07.2020 07:00:00 - 09.07.2020 07:00:00 (CEST)Arkona, Allemagne (10091): reduced air pressure: 03.07.2020 07:00:00 - 09.07.2020 07:00:00 (CEST)Arkona, Allemagne (10091): visibility: 03.07.2020 07:00:00 - 09.07.2020 07:00:00 (CEST)Arkona, Allemagne (10091): Ensoleillement: 03.07.2020 07:00:00 - 09.07.2020 07:00:00 (CEST)Arkona, Allemagne (10091): Quantités de précipitations: 03.07.2020 07:00:00 - 09.07.2020 07:00:00 (CEST)
Date & Time tt [°C] td [°C] tt 5cm [°C] tt -5cm [°C] tt -20cm [°C] tt -100cm [°C] tw [°C] ff [km/h] ff [knt] fx [km/h] fx [knt] dd ppp [hPa] vv [km] sd [min] rr [mm]
09.07.2020 07:00:00 14,1 9,6 - - - - 15,8 12 6 21 11 W 1014,8 73 54 -
09.07.2020 06:00:00 12,9 9,7 12,2 13,7 16,8 17,0 15,8 14 8 22 12 W 1015,0 64 3 0,0
09.07.2020 05:00:00 12,3 9,2 11,8 13,7 17,1 17,0 15,8 13 7 23 12 W 1014,6 50 0 0,0
09.07.2020 04:00:00 12,7 8,9 11,8 13,8 17,4 17,0 15,8 14 8 26 14 W 1014,8 58 0 0,0
09.07.2020 03:00:00 13,5 8,8 12,5 14,1 17,8 17,0 15,8 17 9 32 17 W 1014,7 60 0 0,0
09.07.2020 02:00:00 13,8 7,5 12,8 14,5 18,1 17,0 15,9 25 13 34 19 W 1014,8 65 0 0,0
09.07.2020 01:00:00 13,7 9,1 12,6 15,2 18,5 17,0 15,9 23 12 34 19 W 1014,8 57 0 0,0
09.07.2020 00:00:00 14,1 9,0 13,5 15,4 19,0 17,0 15,9 22 12 33 18 W 1014,9 61 0 0,0
08.07.2020 23:00:00 14,3 8,3 13,2 16,4 19,4 17,1 15,9 24 13 35 19 W 1014,5 68 0 0,0
08.07.2020 22:00:00 14,5 8,9 14,0 17,7 19,8 17,1 15,8 22 12 37 20 W 1014,3 64 18 0,0
08.07.2020 21:00:00 15,3 8,1 14,5 19,3 20,0 17,1 15,8 22 12 34 18 W 1013,8 53 41 0,0
08.07.2020 20:00:00 15,8 9,0 16,8 21,3 20,0 17,1 15,8 25 13 37 20 WSW 1013,5 47 48 0,0
08.07.2020 19:00:00 16,3 8,0 17,4 22,8 19,9 17,1 15,8 28 15 44 24 W 1013,4 59 59 0,0
08.07.2020 18:00:00 16,8 7,9 19,2 24,1 19,5 17,1 15,8 30 16 45 24 W 1013,2 53 60 0,0
08.07.2020 17:00:00 16,6 8,1 19,5 24,5 19,0 17,1 15,8 30 16 43 23 W 1013,1 61 60 0,0
08.07.2020 16:00:00 16,1 7,3 19,3 24,5 18,4 17,1 15,8 33 18 48 26 W 1013,3 69 58 0,0
08.07.2020 15:00:00 15,7 7,6 18,6 23,1 17,9 17,1 15,8 33 18 48 26 W 1013,1 75 52 0,0
08.07.2020 14:00:00 14,4 7,9 15,3 19,9 17,5 17,1 15,8 35 19 51 28 W 1012,9 51 16 0,0
08.07.2020 13:00:00 15,0 7,7 17,3 21,6 17,0 17,1 15,8 37 20 50 27 W 1012,8 46 57 0,0
08.07.2020 12:00:00 15,6 8,4 17,9 19,4 16,6 17,1 15,8 34 18 48 26 W 1012,4 61 52 0,0
08.07.2020 11:00:00 14,1 7,5 15,7 17,2 16,4 17,1 15,7 32 18 47 25 W 1012,2 71 19 0,0
08.07.2020 10:00:00 13,9 8,2 15,9 16,6 16,1 17,1 15,8 34 19 47 26 W 1012,0 58 45 0,0
08.07.2020 09:00:00 13,8 7,4 14,7 15,3 16,1 17,1 15,8 30 16 48 26 W 1011,7 58 41 0,0
08.07.2020 08:00:00 13,4 8,0 13,3 13,8 16,2 17,1 15,8 31 17 46 25 W 1011,6 69 25 0,0
08.07.2020 07:00:00 13,0 8,0 12,8 13,1 16,4 17,1 15,8 34 18 46 25 W 1011,5 63 7 0,0
08.07.2020 06:00:00 13,0 7,9 12,6 12,8 16,6 17,2 15,8 32 17 48 26 W 1011,6 67 2 0,0
08.07.2020 05:00:00 13,2 8,2 12,7 12,9 16,9 17,2 15,9 29 16 43 23 W 1011,5 56 0 0,0
08.07.2020 04:00:00 12,8 8,5 12,3 13,0 17,3 17,2 15,9 27 15 44 24 W 1011,7 51 0 0,0
08.07.2020 03:00:00 13,0 8,8 12,6 13,6 17,7 17,2 15,8 32 17 42 23 W 1011,9 52 0 0,0
08.07.2020 02:00:00 12,9 9,4 12,5 13,9 18,1 17,2 15,9 29 16 39 21 W 1012,1 51 0 0,0
08.07.2020 01:00:00 12,0 8,7 11,6 14,1 18,5 17,2 15,9 21 12 47 25 W 1012,3 62 0 0,0
08.07.2020 00:00:00 12,9 9,9 12,4 14,7 19,0 17,2 16,0 28 15 39 21 W 1012,3 53 0 0,0
07.07.2020 23:00:00 11,7 10,9 11,7 15,6 19,5 17,2 16,0 14 8 41 22 WSW 1012,4 36 0 3,3
07.07.2020 22:00:00 11,8 11,0 11,7 16,6 20,0 17,2 16,0 38 21 53 28 W 1013,0 4,5 0 0,2
07.07.2020 21:00:00 12,7 11,8 12,8 17,5 20,6 17,2 16,0 23 13 37 20 SW 1012,7 43 0 0,2
07.07.2020 20:00:00 12,8 11,6 12,3 18,5 21,0 17,2 16,0 31 17 59 32 W 1013,5 10 0 0,8
07.07.2020 19:00:00 14,2 11,6 13,8 22,0 21,2 17,3 16,0 37 20 59 32 W 1013,4 36 0 0,0
07.07.2020 18:00:00 16,9 9,7 18,2 24,6 21,0 17,3 16,1 29 16 48 26 WSW 1013,6 46 13 0,0
07.07.2020 17:00:00 18,8 7,7 22,8 27,2 20,4 17,3 16,1 31 17 52 28 WSW 1014,1 60 50 0,0
07.07.2020 16:00:00 18,4 8,8 22,2 27,6 19,6 17,3 16,0 37 20 51 27 WSW 1014,6 75 59 0,0
07.07.2020 15:00:00 17,1 7,8 20,4 26,6 18,9 17,3 15,9 37 20 58 31 WSW 1014,8 49 56 0,0
07.07.2020 14:00:00 16,0 8,7 19,2 25,0 18,3 17,3 15,9 41 22 58 32 W 1015,3 38 51 0,0
07.07.2020 13:00:00 16,6 9,7 19,6 23,1 17,7 17,3 15,8 41 22 53 29 W 1015,4 47 46 0,0
07.07.2020 12:00:00 15,6 8,7 18,7 21,8 17,2 17,3 15,7 36 19 50 27 W 1015,5 45 49 0,0
07.07.2020 11:00:00 14,6 8,3 16,7 19,0 16,9 17,3 15,6 37 20 54 29 W 1015,5 39 12 0,0
07.07.2020 10:00:00 14,8 8,5 17,2 19,2 16,6 17,3 15,6 35 19 57 31 W 1015,1 32 57 0,0
07.07.2020 09:00:00 14,3 8,0 15,7 16,2 16,5 17,3 15,6 34 19 58 31 W 1015,0 43 13 0,0
07.07.2020 08:00:00 13,5 8,1 13,9 15,2 16,5 17,4 15,6 36 20 55 30 W 1014,7 43 2 0,0
07.07.2020 07:00:00 13,4 7,0 13,5 14,1 16,6 17,4 15,6 39 21 59 32 W 1014,1 48 0 0,0
07.07.2020 06:00:00 13,0 6,2 12,7 13,6 16,8 17,4 15,7 34 18 54 29 WNW 1013,7 40 0 0,0
07.07.2020 05:00:00 13,4 6,0 13,0 13,5 17,1 17,4 15,7 34 18 63 34 WNW 1013,1 45 0 0,0
07.07.2020 04:00:00 13,2 7,4 12,5 13,8 17,3 17,4 15,9 41 22 66 36 WNW 1012,7 38 0 0,0
07.07.2020 03:00:00 13,3 8,2 12,9 14,2 17,6 17,4 15,9 43 23 67 36 W 1012,4 39 0 0,0
07.07.2020 02:00:00 13,9 8,0 13,6 14,6 17,9 17,4 16,0 47 25 67 36 W 1012,1 43 0 0,0
07.07.2020 01:00:00 13,8 8,8 13,7 14,7 18,2 17,4 16,0 44 24 63 34 W 1011,6 35 0 0,0
07.07.2020 00:00:00 14,1 7,7 13,5 14,7 18,6 17,4 16,1 47 25 69 37 W 1011,0 35 0 0,0
06.07.2020 23:00:00 14,5 8,9 13,9 15,2 19,1 17,4 - 50 27 69 37 W 1010,2 30 0 0,0
06.07.2020 22:00:00 14,5 8,6 13,7 15,9 19,6 17,5 - 49 27 67 36 W 1009,6 32 16 0,0
06.07.2020 21:00:00 14,2 10,7 13,6 17,3 19,9 17,5 - 43 23 77 42 W 1008,9 33 30 0,1
06.07.2020 20:00:00 15,7 10,6 16,3 20,0 20,1 17,5 16,2 48 26 72 39 WSW 1008,2 39 50 0,0
06.07.2020 19:00:00 16,3 9,9 17,6 21,3 20,1 17,5 16,3 52 28 79 42 WSW 1007,6 43 32 0,0
06.07.2020 18:00:00 16,8 8,7 18,4 23,3 19,9 17,5 16,3 69 37 81 44 WSW 1007,0 57 54 0,0
06.07.2020 17:00:00 17,2 10,5 18,7 23,6 19,5 17,5 16,2 54 29 78 42 WSW 1006,7 51 57 0,0
06.07.2020 16:00:00 17,6 11,1 20,7 24,2 19,0 17,5 16,0 50 27 75 41 WSW 1006,2 37 56 0,0
06.07.2020 15:00:00 16,4 11,0 17,7 22,6 18,7 17,5 15,9 54 29 74 40 WSW 1005,9 33 39 0,3
06.07.2020 14:00:00 16,7 10,6 19,9 22,6 18,2 17,5 15,9 49 27 76 41 WSW 1005,3 43 48 0,0
06.07.2020 13:00:00 16,2 10,1 17,6 21,1 17,8 17,5 16,1 61 33 79 42 WSW 1004,8 36 32 0,0
06.07.2020 12:00:00 16,7 9,7 18,4 20,6 17,4 17,6 16,1 49 26 76 41 WSW 1004,2 57 44 0,0
06.07.2020 11:00:00 16,9 9,5 18,8 19,6 17,0 17,6 16,1 51 28 73 39 WSW 1004,0 48 49 0,0
06.07.2020 10:00:00 16,2 9,3 17,5 18,0 16,8 17,6 16,1 50 27 68 37 WSW 1003,8 71 42 0,0
06.07.2020 09:00:00 16,0 9,3 17,0 16,0 16,7 17,6 16,3 39 21 67 36 WSW 1004,0 45 24 0,0
06.07.2020 08:00:00 15,2 10,7 15,1 15,4 16,7 17,6 16,1 36 20 53 28 WSW 1003,7 49 27 0,0
06.07.2020 07:00:00 14,3 10,5 14,2 14,0 16,9 17,6 16,1 36 20 51 27 SW 1003,7 44 20 0,0
06.07.2020 06:00:00 13,2 10,4 12,7 13,7 17,1 17,6 16,0 27 15 36 19 SW 1004,1 46 0 0,0
06.07.2020 05:00:00 13,7 10,2 13,2 13,9 17,3 17,6 16,0 26 14 38 20 SW 1004,0 41 0 0,0
06.07.2020 04:00:00 14,2 10,1 13,1 13,9 17,6 17,6 16,0 25 14 43 23 WSW 1004,1 42 0 0,0
06.07.2020 03:00:00 15,2 9,6 14,6 14,3 17,9 17,6 16,0 33 18 46 25 WSW 1004,8 50 0 0,0
06.07.2020 02:00:00 14,6 9,8 13,5 14,2 18,3 17,6 16,1 29 16 46 25 WSW 1005,2 42 0 0,0
06.07.2020 01:00:00 15,2 10,2 14,0 14,9 18,6 17,6 16,1 28 15 49 26 WSW 1005,3 42 0 0,0
06.07.2020 00:00:00 16,0 11,2 15,1 15,5 19,0 17,6 16,1 32 17 53 29 WSW 1005,3 41 0 0,0
05.07.2020 23:00:00 16,7 11,4 15,7 16,1 19,3 17,7 16,1 37 20 45 25 W 1005,4 44 0 0,0
05.07.2020 22:00:00 17,0 11,5 16,5 16,8 19,7 17,7 16,0 38 20 52 28 W 1005,4 36 0 0,0
05.07.2020 21:00:00 17,2 12,7 16,5 18,0 19,9 17,7 16,0 38 20 53 29 W 1005,0 33 24 0,0
05.07.2020 20:00:00 18,1 13,8 18,0 19,4 20,1 17,7 15,9 34 18 62 33 WSW 1004,8 48 38 0,0
05.07.2020 19:00:00 18,9 13,7 20,0 20,2 20,1 17,7 15,9 37 20 73 39 W 1004,8 52 23 0,0
05.07.2020 18:00:00 20,0 15,3 20,8 22,1 20,0 17,7 16,0 44 24 69 38 WSW 1004,4 56 45 0,0
05.07.2020 17:00:00 19,9 15,2 21,9 21,7 19,8 17,7 16,0 47 25 72 39 WSW 1004,3 50 14 0,0
05.07.2020 16:00:00 19,7 15,9 20,1 22,7 19,6 17,7 16,0 42 23 73 40 WSW 1004,4 71 19 0,0
05.07.2020 15:00:00 18,8 17,2 18,8 21,4 19,4 17,7 16,1 41 22 63 34 SW 1004,4 7 0 0,2
05.07.2020 14:00:00 18,7 17,6 18,8 20,5 19,3 17,7 16,1 35 19 68 37 WSW 1004,3 34 0 0,2
05.07.2020 13:00:00 19,3 17,2 18,4 20,1 19,1 17,7 16,1 36 19 54 29 SW 1004,0 5 3 0,0
05.07.2020 12:00:00 19,5 17,3 19,8 20,1 18,9 17,7 16,1 31 17 56 31 SW 1004,2 68 0 0,0
05.07.2020 11:00:00 19,8 17,9 21,0 20,4 18,7 17,7 16,1 37 20 51 28 SW 1004,2 47 1 0,0
05.07.2020 10:00:00 18,6 17,8 18,7 19,3 18,6 17,7 16,1 31 17 41 22 SW 1004,6 39 0 0,0
05.07.2020 09:00:00 17,7 17,2 17,7 18,3 18,6 17,7 16,1 27 15 42 23 SW 1005,2 3,8 0 0,0
05.07.2020 08:00:00 17,7 17,0 17,5 18,1 18,5 17,8 16,1 30 16 49 27 SW 1005,4 26 0 0,0
05.07.2020 07:00:00 17,3 16,8 17,1 17,5 18,6 17,8 16,2 31 17 45 24 SW 1005,8 27 0 0,0
05.07.2020 06:00:00 16,9 16,6 16,8 17,3 18,7 17,8 16,3 26 14 42 23 SW 1006,3 4,1 0 0,0
05.07.2020 05:00:00 16,7 16,3 16,5 17,3 18,8 17,8 16,3 29 16 43 23 SW 1006,6 17 0 0,0
05.07.2020 04:00:00 16,6 16,3 16,4 17,3 18,9 17,8 16,4 25 14 37 20 SW 1007,1 14 0 0,1
05.07.2020 03:00:00 16,4 16,1 16,3 17,3 19,0 17,8 16,4 24 13 42 23 SW 1007,8 12 0 0,1
05.07.2020 02:00:00 16,7 16,0 16,5 17,4 19,1 17,8 16,5 27 14 43 23 SW 1008,2 17 0 0,0
05.07.2020 01:00:00 16,7 15,9 16,5 17,4 19,3 17,8 16,5 28 15 51 28 SW 1008,3 25 0 0,0
05.07.2020 00:00:00 16,8 16,0 16,4 17,5 19,4 17,8 16,5 31 17 46 25 WSW 1008,6 28 0 0,0
04.07.2020 23:00:00 16,7 16,2 16,4 17,7 19,6 17,8 16,6 28 15 44 24 WSW 1008,8 15 0 0,0
04.07.2020 22:00:00 16,5 16,0 16,4 17,8 19,8 17,8 16,6 31 17 47 26 SW 1009,0 18 0 0,0
04.07.2020 21:00:00 16,3 15,9 16,2 18,1 20,0 17,8 16,5 33 18 46 25 SW 1009,1 13 0 0,2
04.07.2020 20:00:00 16,1 15,8 16,1 18,4 20,2 17,8 16,4 33 18 49 26 SW 1009,4 6 0 1,5
04.07.2020 19:00:00 16,2 15,8 16,2 18,9 20,4 17,8 16,4 28 15 48 26 SW 1009,8 7 0 2,5
04.07.2020 18:00:00 17,2 14,9 17,5 19,9 20,5 17,8 - 32 17 53 28 SW 1009,8 39 0 0,0
04.07.2020 17:00:00 17,1 15,2 16,8 20,7 20,5 17,8 16,5 27 15 38 21 SW 1009,9 31 0 0,2
04.07.2020 16:00:00 17,2 14,9 18,4 21,6 20,4 17,8 16,6 26 14 50 27 SW 1010,1 17 0 0,0
04.07.2020 15:00:00 17,3 14,2 17,6 21,5 20,2 17,8 16,8 34 18 53 29 WSW 1010,4 22 0 0,0
04.07.2020 14:00:00 17,9 13,8 19,6 21,9 20,0 17,8 16,9 34 18 57 31 SW 1010,6 66 0 0,0
04.07.2020 13:00:00 17,9 13,3 19,4 22,3 19,8 17,7 17,0 43 23 58 31 SW 1010,8 47 2 0,0
04.07.2020 12:00:00 17,3 13,2 18,9 20,0 19,7 17,7 17,0 36 20 54 29 SW 1010,8 43 0 0,0
04.07.2020 11:00:00 16,7 12,9 17,4 18,8 19,7 17,7 - 33 18 53 29 WSW 1011,0 39 0 0,0
04.07.2020 10:00:00 16,5 13,0 17,2 18,9 19,7 17,7 17,0 38 21 55 30 WSW 1010,9 39 0 0,0
04.07.2020 09:00:00 16,4 13,2 16,9 18,2 19,8 17,7 17,0 34 19 51 28 WSW 1011,0 31 0 0,1
04.07.2020 08:00:00 15,9 13,8 15,2 17,9 20,0 17,7 17,0 35 19 46 25 WSW 1010,9 28 0 0,2
04.07.2020 07:00:00 16,2 14,1 15,6 17,7 20,2 17,7 17,1 29 15 46 25 SW 1010,8 27 0 0,1
04.07.2020 06:00:00 16,3 14,5 15,6 17,6 20,4 17,7 17,2 27 14 39 21 SW 1011,0 19 0 0,0
04.07.2020 05:00:00 15,9 14,7 15,4 17,7 20,7 17,7 17,2 24 13 32 17 SSW 1011,3 18 0 0,0
04.07.2020 04:00:00 15,5 14,8 15,2 17,9 21,0 17,7 17,3 21 11 28 15 SW 1011,7 10 0 0,0
04.07.2020 03:00:00 15,4 14,9 15,2 18,1 21,4 17,7 17,2 19 10 35 19 SW 1012,4 9 0 0,0
04.07.2020 02:00:00 15,1 14,4 14,8 18,5 21,8 17,7 17,3 25 14 39 21 SW 1013,0 15 0 0,0
04.07.2020 01:00:00 15,4 14,6 15,2 19,0 22,2 17,7 17,3 24 13 33 18 SSW 1013,5 9 0 0,1
04.07.2020 00:00:00 15,2 14,7 15,1 19,8 22,6 17,7 17,4 16 9 30 16 SW 1013,8 10 0 0,6
03.07.2020 23:00:00 15,8 14,6 16,0 20,7 23,0 17,7 17,4 12 6 14 7 SSW 1013,7 33 0 0,0
03.07.2020 22:00:00 15,4 13,6 15,8 21,3 23,4 17,7 17,4 11 6 18 10 WSW 1013,9 45 0 0,0
03.07.2020 21:00:00 15,1 12,8 14,7 22,0 23,8 17,7 17,3 23 13 53 29 W 1014,1 46 0 0,0
03.07.2020 20:00:00 17,3 12,5 17,5 24,0 24,1 17,7 17,3 19 10 28 15 W 1013,8 59 0 0,0
03.07.2020 19:00:00 17,5 12,5 18,2 25,7 24,3 17,7 17,4 13 7 28 15 WSW 1013,9 62 0 0,0
03.07.2020 18:00:00 17,9 11,7 19,4 27,8 24,1 17,7 17,4 17 9 32 17 WSW 1013,9 62 11 0,0
03.07.2020 17:00:00 18,2 10,7 20,5 29,8 23,7 17,7 17,4 22 12 34 18 WSW 1013,9 75 34 0,0
03.07.2020 16:00:00 17,9 9,9 22,2 30,8 23,1 17,7 17,3 21 11 32 18 W 1014,0 43 60 0,0
03.07.2020 15:00:00 17,0 10,1 21,2 29,0 22,7 17,7 17,3 19 10 33 18 WNW 1014,4 75 46 0,0
03.07.2020 14:00:00 17,0 10,4 20,9 27,3 22,3 17,7 17,4 21 11 32 17 WSW 1014,6 51 15 0,0
03.07.2020 13:00:00 15,9 10,2 19,4 27,3 21,8 17,7 17,3 19 10 27 15 W 1014,4 62 1 0,0
03.07.2020 12:00:00 16,4 10,8 20,0 27,6 21,2 17,7 17,2 16 8 24 13 W 1014,0 62 15 0,0
03.07.2020 11:00:00 17,0 11,4 21,4 26,4 20,6 17,7 17,1 13 7 20 11 NW 1013,5 49 53 0,0
03.07.2020 10:00:00 16,8 11,9 19,4 23,2 20,3 17,7 17,1 10 6 19 10 NW 1013,2 64 23 0,0
03.07.2020 09:00:00 16,4 11,3 18,5 21,6 20,1 17,7 17,0 11 6 24 13 NW 1012,6 75 51 0,0
03.07.2020 08:00:00 16,6 11,9 17,6 19,4 20,2 17,7 17,0 13 7 28 15 NNW 1012,2 75 27 0,0
03.07.2020 07:00:00 16,4 11,4 16,4 18,0 20,5 17,7 16,9 12 6 18 10 NW 1011,7 50 13 0,0

tt = Température de l'air
td = dewpoint
tt 5cm = Température de l'air 5cm
tt -5cm = Température de l'air -5cm
tt -20cm = Température de l'air -20cm
tt -100cm = Température de l'air -100cm
tw = water temperature
ff = Vitesse du vent
fx = gusts
dd = Direction du vent
ppp = reduced air pressure
vv = visibility
sd = Ensoleillement
rr = Quantités de précipitations

stations d'obs. à proximité